Regional Weather Roundup
Issued by NWS

Home | Current Version | Previous Version | Text Only | Print | Product List | Glossary On
Versions: 1 2 3 4 5 6 7 8 9 10 11 12 13 14 15 16 17 18 19 20 21 22 23 24 25 26 27 28 29 30 31 32 33 34 35 36 37 38 39 40 41 42 43 44 45 46 47 48 49 50
000
ASPQ40 PGUM 280512
RWRPQ
WEATHER ROUNDUP FOR THE MARIANAS AND MICRONESIA
NATIONAL WEATHER SERVICE TIYAN GU
300 PM CHST THU AUG 28 2014

GUZ001>004-280600-
MARIANA ISLANDS-

CITY           SKY/WX    TMP DP  RH WIND       PRES   REMARKS
GUAM AIRPORT   MOSUNNY   86  75  70 VRB6      29.83S HX  95
ANDERSEN AFB   MOSUNNY   86  75  70 E6        29.84S HX  95
ROTA AIRPORT   MOSUNNY   84  75  74 E7        29.85S HX  92
TINIAN AP      PTSUNNY   86  77  74 NE9       29.82S HX  97
SAIPAN AP      MOSUNNY   88  77  70 E9        29.83F HX 100

$$

PMZ161-280600-
REPUBLIC OF PALAU-

CITY           SKY/WX    TMP DP  RH WIND       PRES   REMARKS
KOROR AP       PTSUNNY   86  77  74 SE7       29.82F HX  97
KOROR WSO      PTSUNNY   88  73  62 S7        29.81F HX  96

$$

PMZ171>174-280600-
FEDERATED STATES OF MICRONESIA-

CITY           SKY/WX    TMP DP  RH WIND       PRES   REMARKS
YAP AIRPORT    PTSUNNY   86  77  74 CALM      29.80F HX  97
CHUUK AP       PTSUNNY   86  79  79 VRB5      29.73F HX  99
POHNPEI AP     NOT AVBL
POHNPEI WSO    CLOUDY    86  79  79 NE3       29.75  HX  99
KOSRAE AP      NOT AVBL

$$

PMZ181-280600-
REPUBLIC OF THE MARSHALL ISLANDS-

CITY           SKY/WX    TMP DP  RH WIND       PRES   REMARKS
KWAJALEIN AP   SUNNY     88  73  62 S6        29.74S HX  96
MAJURO AP      NOT AVBL
MAJURO WSO     MOSUNNY   88  77  70 S5        29.74R HX 100

$$



USA.gov is the U.S. government's official web portal to all federal, state and local government web resources and services.